Martinsburg, PA

12:31 PM EDT on August 31, 2016 (GMT -0400)
Altoona-Blair County

Weather History for KAOO - June, 2013

Change the Weather History Date:

Saturday, June 22, 2013

  Actual Average Record
Temperature  
Mean Temperature 74 °F 69 °F  
Max Temperature 87 °F 79 °F 91 °F (1988)
Min Temperature 62 °F 58 °F 39 °F (1963)
Degree Days  
Heating Degree Days 0 1  
Month to date heating degree days 51  
Since 1 June heating degree days 51  
Since 1 July heating degree days 6197  
Cooling Degree Days 9 4  
Month to date cooling degree days 68  
Year to date cooling degree days 101  
Since 1 June cooling degree days 68  
Growing Degree Days 24 (Base 50)    
Moisture  
Dew Point 61 °F    
Average Humidity 63    
Maximum Humidity 84    
Minimum Humidity 44    
Precipitation  
Precipitation 0.00 in 0.11 in 4.39 in (1972)
Month to date precipitation 2.57  
Year to date precipitation 16.75  
Sea Level Pressure  
Sea Level Pressure 30.20 in    
Wind  
Wind Speed 5 mph (SSW)    
Max Wind Speed 10 mph    
Max Gust Speed 16 mph    
Visibility 10 miles    
Events      
T = Trace of Precipitation, MM = Missing Value Source: NWS Daily Summary

Daily Weather History Graph

Daily Weather History Graph

Search for Another Location

Airport or City:

Trip Planner

Search our weather history database for the weather conditions in past years. The results will help you decide how hot, cold, wet, or windy it might be!

Date:

Astronomy

Jun. 22, 2013 Rise Set
Actual Time 5:43 AM EDT 8:46 PM EDT
Civil Twilight 5:10 AM EDT 9:19 PM EDT
Nautical Twilight 4:28 AM EDT 10:02 PM EDT
Astronomical Twilight 3:39 AM EDT 10:51 PM EDT
Moon 7:59 PM EDT (6/22) 4:54 AM EDT (6/22)
Length of Visible Light 16h 09m
Length of Day
15h 02m
Waxing Gibbous, 99% of the Moon is Illuminated
Jun 22
Waxing Gibbous
Jun 23
Full
Jun 30
Last Quarter
Jul 8
New
Jul 15
First Quarter

Hourly Weather History & Observations

Time (EDT) Temp. Heat Index Dew Point Humidity Pressure Visibility Wind Dir Wind Speed Gust Speed Precip Events Conditions
12:53 AM 68.0 °F - 55.9 °F 65% 30.22 in 10.0 mi South 6.9 mph - N/A   Clear
1:53 AM 66.0 °F - 57.0 °F 73% 30.23 in 10.0 mi Calm Calm - N/A   Clear
2:53 AM 64.9 °F - 55.9 °F 73% 30.23 in 10.0 mi Calm Calm - N/A   Clear
3:53 AM 64.9 °F - 57.0 °F 75% 30.22 in 10.0 mi SSW 3.5 mph - N/A   Clear
4:53 AM 62.1 °F - 55.9 °F 80% 30.21 in 10.0 mi Calm Calm - N/A   Clear
5:53 AM 63.0 °F - 57.0 °F 81% 30.20 in 10.0 mi South 5.8 mph - N/A   Clear
6:53 AM 63.0 °F - 57.9 °F 84% 30.20 in 9.0 mi Calm Calm - N/A   Clear
7:53 AM 68.0 °F - 57.9 °F 70% 30.21 in 10.0 mi SSW 3.5 mph - N/A   Clear
8:53 AM 71.1 °F - 59.0 °F 66% 30.23 in 10.0 mi SW 6.9 mph - N/A   Clear
9:53 AM 75.0 °F - 60.1 °F 60% 30.24 in 10.0 mi SSW 5.8 mph - N/A   Clear
10:10 AM 75.2 °F - 60.8 °F 61% 30.27 in 2.5 mi SW 5.8 mph - N/A   Haze
10:18 AM 75.2 °F - 60.8 °F 61% 30.27 in 10.0 mi SSW 6.9 mph - N/A   Clear
10:53 AM 77.0 °F - 61.0 °F 58% 30.24 in 10.0 mi SW 5.8 mph - N/A   Clear
11:53 AM 79.0 °F - 62.1 °F 56% 30.23 in 10.0 mi South 5.8 mph - N/A   Clear
12:53 PM 82.9 °F 84.4 °F 64.0 °F 53% 30.22 in 10.0 mi SSW 8.1 mph - N/A   Clear
1:53 PM 84.9 °F 86.1 °F 64.0 °F 49% 30.20 in 10.0 mi SSW 8.1 mph - N/A   Partly Cloudy
2:53 PM 86.0 °F 86.3 °F 62.1 °F 44% 30.19 in 10.0 mi SSW 6.9 mph - N/A   Partly Cloudy
3:53 PM 86.0 °F 86.8 °F 63.0 °F 46% 30.17 in 10.0 mi South 5.8 mph - N/A   Clear
4:53 PM 84.9 °F 85.4 °F 62.1 °F 46% 30.15 in 10.0 mi SSW 6.9 mph - N/A   Clear
5:53 PM 84.0 °F 85.4 °F 64.0 °F 51% 30.13 in 10.0 mi South 10.4 mph - N/A   Clear
6:53 PM 82.0 °F 83.8 °F 64.9 °F 56% 30.11 in 10.0 mi South 10.4 mph 16.1 mph N/A   Clear
7:53 PM 79.0 °F - 64.0 °F 60% 30.12 in 10.0 mi South 6.9 mph - N/A   Clear
8:53 PM 75.9 °F - 64.9 °F 69% 30.14 in 10.0 mi SSW 6.9 mph - N/A   Clear
9:53 PM 75.0 °F - 64.0 °F 69% 30.15 in 10.0 mi SSW 5.8 mph - N/A   Clear
10:53 PM 73.9 °F - 64.0 °F 71% 30.16 in 10.0 mi SSW 6.9 mph - N/A   Clear
11:53 PM 73.9 °F - 64.0 °F 71% 30.17 in 10.0 mi SSW 9.2 mph - N/A   Clear